Location: Godzisko
(49.9648°N, 19.4576°E)
Time: 02:53:56
(UTC+00:00)

Meteor 1-15 Rocket - Pass Details

Date: 20 April 2021
Orbit: 839 x 908 km, 81.2° (Epoch: 15 May)

Event Time Altitude Azimuth Distance (km) Brightness Sun altitude
Rises 01:40:22 0° 348° (NNW) 3,407 7.8 -17.1°
Reaches altitude 10° 01:42:47 10° 350° (N) 2,467 7.1 -16.8°
Maximum altitude 01:48:23 79° 77° (ENE) 862 4.3 -16.1°
Drops below altitude 10° 01:53:58 10° 165° (SSE) 2,466 6.4 -15.5°
Sets 01:56:23 0° 166° (SSE) 3,404 7.1 -15.2°
